www.pogodaiklimat.ru

Погода и климат >> Архив погоды >> Россия >> Краснодарский край >> Белореченск


ПОГОДА в Белореченске

  • Прогноз погоды в Белореченске
  • Монитор погоды в Белореченске

АРХИВ ПОГОДЫ в Белореченске

Время (UTC), дата Ветер
(напр.,м/с)
 
Видим.   Явления Облачность Т
(С)
Тd
(С)
f
(%)
Тe
(С)
Тes
(С)
Комфортность P
(гПа)
Po
(гПа)
Тmin
(С)
Tmax
(С)
R
(мм)
R24
(мм)
S
(см)
06 19.08 СЗ 1 10 км {ливн. осадки} 10/10 300 м
[Cb cap]
+18.7 +17.3 92 +21 +21 комфорт 1016.1 1000.5
09 19.08 СВ 1 20 км 9/4 1000 м
[Cu hum Ac lent]
+25.1 +19.7 72 +31 +34 очень
душно
1015.4 1000.2
12 19.08 СВ 2 20 км 8/8 1000 м
[Cu hum]
+28.4 +20.1 61 +35 +37 очень
душно
1014.4 999.3
15 19.08 С 1 20 км 10/0
[Ac trans Cs]
+28.9 +19.7 58 +35 +36 очень
душно
1014.4 999.3 +29.5 1
18 19.08 штиль 0 10 км 8/0
[Ac trans]
+24.4 +21.4 83 +31 +31 очень
душно
1015.7 1000.4
21 19.08 ЮЗ 1 10 км ясно +22.5 +21.0 91 +29 +29 очень
душно
1016.0 1000.6
00 20.08 З 1 1000 м дымка ясно +21.4 +20.5 95 +27 +27 душно 1016.0 1000.5
03 20.08 Ю 1 500 м туман {гроза, ливн. осадки} ?/? +21.1 +20.2 95 +26 +26 душно 1016.5 1001.0 +21.0 2
06 20.08 штиль 0 4000 м дымка {туман} 8/6 1000 м
[Cu Sc Cs]
+24.0 +20.3 80 +30 +33 очень
душно
1016.7 1001.3 +21.0
09 20.08 С 2 20 км 5/3 1000 м
[Sc Cs]
+30.9 +16.3 41 +34 +44 душно 1015.4 1000.4
12 20.08 С 3 20 км в посл. час гроза 8/5 600 м
[Cb cap Cs]
+33.4 +13.5 30 +34 +38 очень
жарко
1014.3 999.4
15 20.08 С 2 20 км 8/4 1000 м
[Sc Ac As Cs]
+32.6 +13.9 32 +34 +34 очень
жарко
1013.1 998.2 +33.7
18 20.08 штиль 0 10 км 10/8 1000 м
[Sc Ac As]
+26.0 +20.9 74 +33 +33 очень
душно
1015.3 1000.1
21 20.08 ЮВ 1 10 км 10/10 1000 м
[Sc]
+24.1 +20.7 81 +30 +30 очень
душно
1014.3 999.0
00 21.08 З 1 10 км 3/1 1000 м
[Sc Ac trans]
+22.6 +19.7 84 +29 +29 очень
душно
1013.7 998.3
03 21.08 ЮЗ 2 10 км 9/6 1000 м
[Sc Ac As Ci]
+21.9 +19.3 85 +27 +27 душно 1014.0 998.6 +20.9
06 21.08 Ю 1 10 км 6/0
[Ac trans Ci fib]
+26.1 +19.5 67 +32 +38 очень
душно
1013.8 998.6
09 21.08 С 2
{10}
20 км 4/0
[Ac trans]
+30.9 +16.7 43 +34 +46 душно 1011.8 996.8
12 21.08 СВ 2 20 км 3/0
[Ac trans]
+34.8 +15.1 31 +37 +45 очень
душно
1009.9 995.2
15 21.08 С 2 20 км 3/0
[Ac cast]
+33.9 +8.2 21 +32 +33 жарко 1008.8 994.0 +36.0
18 21.08 С 4 10 км ясно +28.8 +9.4 30 +29 +29 жарко 1008.1 993.1
21 21.08 С 1 10 км 8/0
[Cs]
+24.0 +17.6 67 +28 +28 душно 1010.1 994.8
00 22.08 С 1 10 км 3/0
[Ac trans Ci fib]
+22.3 +19.6 85 +28 +28 душно 1009.9 994.6
03 22.08 С 1 10 км 4/3 1000 м
[Sc diur, vesp Ci fib]
+20.3 +17.2 82 +25 +25 комфорт 1010.3 994.8 +20.2
06 22.08 СВ 3 10 км 9/5 1000 м
[Sc Ac cast Cs]
+25.1 +11.9 44 +27 +29 жарко 1011.0 995.7
09 22.08 ЮВ 1 10 км 9/6 1000 м
[Sc Ac As Ci fib]
+26.1 +15.5 52 +29 +33 жарко 1010.8 995.6
12 22.08 ЮЗ 2 10 км 10/6 1000 м
[Sc Ac As]
+26.9 +17.0 55 +31 +32 душно 1010.7 995.5
15 22.08 ЮЗ 1 10 км 9/5 1000 м
[Sc Ac As]
+26.2 +18.4 62 +31 +31 очень
душно
1010.4 995.2 +28.6
18 22.08 штиль 0 10 км 10/10 1000 м
[Sc]
+22.5 +18.7 79 +28 +28 душно 1011.1 995.7
21 22.08 штиль 0 10 км 10/10 1000 м
[Sc]
+20.5 +18.8 90 +24 +24 комфорт 1011.3 995.8
00 23.08 ЮЗ 1 10 км 10/0
[Ac As]
+19.2 +18.1 93 +22 +22 комфорт 1012.0 996.5
03 23.08 В 1 4000 м дымка 10/3 1000 м
[Sc Ac As Cs]
+18.1 +17.2 94 +19 +19 1012.4 996.8 +17.9
06 23.08 СЗ 1 20 км 9/0
[Ac cast Ci sp]
+25.9 +16.8 57 +30 +34 душно 1012.4 997.2
09 23.08 СВ 2 20 км 9/0
[Ac cast Ci sp]
+31.5 +12.4 31 +32 +40 жарко 1011.8 996.8
12 23.08 штиль 0
{10}
20 км 9/0
[Ac cast Ci sp]
+32.7 +10.8 26 +32 +38 жарко 1011.3 996.4
15 23.08 ЮЗ 2 20 км 9/0
[Ac cast Ci fib]
+30.7 +18.0 47 +35 +36 очень
душно
1011.3 996.3 +34.5
18 23.08 ЮЗ 1 10 км 6/0
[Ac lent Ci fib]
+25.0 +19.3 71 +30 +30 душно 1011.8 996.6
21 23.08 штиль 0 10 км 8/0
[Ci fib]
+20.7 +18.5 87 +24 +24 комфорт 1012.0 996.5
00 24.08 штиль 0 10 км 10/0
[Cs]
+19.2 +17.8 92 +21 +21 комфорт 1012.4 996.8
03 24.08 ЮЗ 2 10 км 9/0
[Ac As Ci fib]
+20.0 +17.7 87 +24 +24 комфорт 1013.3 997.8 +19.0
06 24.08 З 2 10 км 9/4 1000 м
[Sc diur, vesp Ac trans]
+23.9 +19.3 75 +29 +31 душно 1013.9 998.5
09 24.08 СЗ 1 20 км 6/3 1000 м
[Cu hum Ci fib]
+28.9 +14.6 42 +31 +42 жарко 1013.3 998.2
12 24.08 ЮЗ 3 10 км 8/3 1000 м
[Cu med, cong Ac trans Cs]
+29.8 +14.4 39 +32 +35 душно 1013.3 998.2
15 24.08 Ю 2 10 км 8/4 1000 м
[Sc diur, vesp Ac trans Cs]
+27.5 +16.9 52 +31 +31 душно 1012.9 997.8 +30.8
18 24.08 штиль 0 10 км 4/0
[Ci fib]
+23.9 +18.8 73 +29 +29 душно 1013.7 998.4
21 24.08 ЮЗ 2 10 км 8/0
[Ac As Ci fib]
+23.3 +17.5 70 +29 +29 душно 1013.8 998.4
00 25.08 ЮЗ 3 10 км 8/0
[Ac trans]
+22.7 +19.7 83 +29 +29 очень
душно
1013.6 998.2
03 25.08 ЮЗ 2 4000 м дымка 4/0
[Ac lent]
+21.6 +19.2 86 +27 +27 душно 1014.2 998.7 +21.5
06 25.08 ЮЗ 3 20 км 3/0
[Ac trans]
+24.8 +16.8 61 +28 +33 жарко 1014.6 999.3
09 25.08 СЗ 2 20 км 1/0
[Ac trans]
+29.9 +13.6 37 +31 +45 жарко 1014.5 999.4
12 25.08 СВ 3 20 км 4/4 1000 м
[Cu hum]
+32.6 +13.9 32 +34 +39 очень
жарко
1013.6 998.6
15 25.08 СВ 4
{11}
20 км 1/1 1000 м
[Cu med, cong]
+29.4 +15.7 43 +32 +33 душно 1014.7 999.6 +33.4
18 25.08 СВ 2 10 км ясно +24.1 +16.0 61 +27 +27 жарко 1016.7 1001.3
21 25.08 В 1 10 км ясно +20.2 +16.2 78 +24 +24 комфорт 1017.3 1001.7
00 26.08 В 1 10 км ясно +17.7 +15.8 89 +19 +19 1017.8 1002.0

 

Местоположение метеостанции Белореченск (Краснодарский край, Россия): широта 44.75 долгота 39.90 высота над уровнем моря 139 м.

В архиве по умолчанию представлена погода в Белореченске за последнюю неделю. Архивные данные за месяц целиком и за предыдущие месяцы, начиная с января 2011 года, Вы можете получить, выбрав интересующий диапазон дат из раскрывающегося списка и нажав кнопку "Ввод!".


*Определитесь, кто Вы:
робот инопланетянин человек

Внимание! Время в таблицах - всемирное. Для получения местного времени необходимо прибавить поправку, которая равна 3 ч.

Смотрите также архив погоды в соседних городах и на ближайших метеорологических станциях:

Погода в Майкопе (Адыгея, Россия) (20 км)
Погода в Шунтуке (Адыгея, Россия) (36 км)
Погода в Дондуковской (Адыгея, Россия) (38 км)
Погода в Усть-Лабинске (Краснодарский край, Россия) (55 км)
Погода в Горячем Ключе (Краснодарский край, Россия) (65 км)
Погода в Лабинске (Краснодарский край, Россия) (68 км)
Погода в Даховской (Адыгея, Россия) (68 км)
Погода в Горном (Краснодарский край, Россия) (72 км)
Погода в Краснодаре (Краснодарский край, Россия) (76 км)
Погода в Гузерипле (Адыгея, Россия) (85 км)

Пояснения к столбцам:

Ветер - указаны скорость ветра в м/с - средняя за 10 мин, порывы в срок и между сроками (в фигурных скобках) и направление, откуда дует ветер: С - северный, СВ - северо-восточный, В - восточный, ЮВ - юго-восточный, Ю - южный, ЮЗ - юго-западный, З - западный, СЗ - северо-западный.
Видимость - горизонтальная дальность видимости в метрах или километрах. При видимости от 1 до 10 км при отсутствии осадков обычно наблюдается дымка, при ухудшении видимости до 1 км и менее - туман. В сухую погоду видимость может ухудшаться дымом, пылью или мглою.
Явления - указаны атмосферные явления, наблюдавшиеся в срок или в последний час перед сроком; фигурными скобками обозначены явления, наблюдавшиеся между сроками (за 1-3 часа до срока); квадратными скобками обозначены град или гололедные отложения с указанием их диаметра в мм.
Облачность - указаны через наклонную черту общая и нижняя облачность в баллах и высота нижней границы облаков в метрах; квадратными скобками обозначены формы облаков: Ci - перистые, Cs - перисто-слоистые, Cc - перисто-кучевые, Ac - высококучевые, As - высокослоистые, Sc - слоисто-кучевые, Ns - слоисто-дождевые, Cu - кучевые, Cb - кучево-дождевые. Подробнее классификацию облаков см. в Атласе облаков (PDF).
T - Температура воздуха - температура, измеренная на высоте 2 м над землей.
Td - Температура точки росы - температура, при понижении до которой содержащийся в воздухе водяной пар достигнет насыщения.
f - Относительная влажность воздуха - влажноcть воздуха, измеренная на высоте 2 м над землей.
Te - Эффективная температура - температура, которую ощущает одетый по сезону человек в тени. Характеристика душности погоды. При расчете учитывается влияние влажности воздуха и скорости ветра на теплоощущения человека.
Tes - Эффективная температура на солнце - температура, которую ощущает человек, с поправкой на солнечный нагрев. Характеристика знойности погоды. Зависит от высоты солнца над горизонтом, облачности и скорости ветра. Ночью, в пасмурную погоду, а также при ветре 12 м/с и более поправка равна нулю.
P - Атмосферное давление - приведенное к уровню моря атмосферное давление.
Po - Атмосферное давление - измеренное на уровне метеостанции атмосферное давление.
Tmin - Минимальная температура - минимум температуры воздуха на высоте 2 м над землей.
Tmax - Максимальная температура - максимум температуры воздуха на высоте 2 м над землей.
R - Количество осадков - Количество выпавших осадков за период времени, мм. При наведении курсора мыши на число - период времени, за который выпало указанное количество осадков.
R24 - Количество осадков - Количество выпавших осадков за 24 часа, мм.
S - Снежный покров - Высота снежного покрова, см. При наведении курсора мыши на число - состояние снежного покрова и степень покрытия местности в баллах.